Content
SEND FEEDBACK

Daily
Averages
Monthly
Summary
Iran

MASHHAD, IRAN


Home > Middle East > Iran
Elevation: 3214 feet     Latitude: 36 16N     Longitude: 059 38E

WEATHER
 
SELECT A DAY
Number of Records: 214,122;   Date Range: 2/9/98 - 12/26/14
 
SHARE

PRINT THIS DATA

[ ← Previous Day ]
WEATHER ALMANAC - JULY 2, 2014
[ Next Day → ]
[ °C ]   °F
Weather ElementAverageHighLow
Temperature79 °F89.6 °F (9:20 am)69.8 °F (3:55 am)
Dewpoint26 °F46.4 °F (5:30 pm)15.8 °F (1:50 pm)
Humidity15.2 %36 % (5:54 am)4 % (10:30 am)
Barometer30.04 in30.09 in (9:58 am)29.82 in (10:30 am)
Wind Speed12.5 mph23 mph (6:20 pm)
Weather ElementAverage
Visibility8.5 mi
Wind DirectionESE (95.7 °)

Weather ElementTotal
Precipitation---
Cooling Degree Days14.7 (Base 65)
Growing Degree Days29.7 (Base 50)
Averaged from 88 records on July 2, 2014
WEATHER CONDITIONS BREAKOUT
WIND DIRECTION BREAKOUT
WEATHER BY HOUR - JULY 2, 2014
[ °C ]   °F
Local TimeTemperatureDewpointHumidityBarometerVisibilityWind DirectionWind SpeedGust SpeedPrecipitationEventsConditions
12:00 AM77.0 °F46.4 °F34 %30.09 inENE (70°)4.6 mphClear
12:20 AM75.2 °F46.4 °F36 %30.09 inNE (50°)6.9 mphClear
12:30 AM75.2 °F46.4 °F36 %30.09 inNE (50°)6.9 mphClear
12:55 AM75.2 °F46.4 °F36 %30.09 inENE (60°)9.2 mphClear
1:00 AM75.2 °F46.4 °F36 %30.09 inENE (60°)9.2 mphClear
1:20 AM75.2 °F44.6 °F34 %30.09 inEast (80°)6.9 mphClear
1:30 AM75.0 °F45.0 °F24 %29.85 in9.0 miEast (80°)6.7 mph
1:30 AM75.2 °F44.6 °F34 %30.09 inEast (80°)6.9 mphClear
1:55 AM73.4 °F41.0 °F31 %30.09 inEast (90°)11.5 mphClear
2:00 AM73.4 °F41.0 °F31 %30.09 inEast (90°)11.5 mphClear
2:20 AM73.4 °F39.2 °F29 %30.09 inEast (80°)11.5 mphClear
2:30 AM73.4 °F39.2 °F29 %30.09 inEast (80°)11.5 mphClear
2:55 AM73.4 °F26.6 °F18 %30.09 inEast (80°)13.8 mphClear
3:20 AM71.6 °F30.2 °F22 %30.09 inSSE (150°)9.2 mphClear
3:30 AM71.6 °F30.2 °F22 %30.09 inSSE (150°)9.2 mphClear
3:55 AM71.6 °F33.8 °F25 %30.06 inSouth (170°)6.9 mphClear
4:20 AM71.6 °F33.8 °F25 %30.09 inSouth (180°)6.9 mphClear
4:30 AM71.0 °F34.0 °F15 %29.87 in7.0 miSouth (180°)6.7 mph
5:00 AM69.8 °F30.2 °F23 %30.09 inSSW (200°)6.9 mphClear
5:20 AM71.6 °F28.4 °F20 %30.09 inSouth (180°)9.2 mphClear
5:30 AM71.6 °F28.4 °F20 %30.09 inSouth (180°)9.2 mphClear
6:00 AM71.6 °F26.6 °F19 %30.09 inSouth (170°)9.2 mphClear
6:20 AM71.6 °F24.8 °F17 %30.09 inSouth (170°)9.2 mphClear
6:30 AM71.6 °F24.8 °F17 %30.09 inSouth (170°)9.2 mphClear
6:55 AM73.4 °F23.0 °F15 %30.09 inSSE (150°)6.9 mphClear
7:00 AM73.4 °F23.0 °F15 %30.09 inSSE (150°)6.9 mphClear
7:20 AM73.4 °F23.0 °F15 %30.09 inSE (130°)9.2 mphClear
7:30 AM73.4 °F23.0 °F15 %30.09 inSE (130°)9.2 mphClear
7:30 AM73.0 °F23.0 °F7 %29.91 in7.0 miSE (130°)8.9 mph
7:55 AM75.2 °F23.0 °F14 %30.09 inSE (130°)11.5 mphClear
8:20 AM75.2 °F23.0 °F14 %30.09 inSE (140°)16.1 mphClear
8:30 AM75.2 °F23.0 °F14 %30.09 inSE (140°)16.1 mphClear
8:50 AM77.0 °F23.0 °F13 %30.09 inESE (110°)13.8 mphClear
9:00 AM77.0 °F23.0 °F13 %30.09 inESE (110°)13.8 mphClear
9:20 AM78.8 °F23.0 °F13 %30.09 inSSE (150°)11.5 mphClear
9:30 AM78.8 °F23.0 °F13 %30.09 inSSE (150°)11.5 mphClear
10:00 AM80.6 °F24.8 °F13 %30.09 inSSE (150°)11.5 mphClear
10:20 AM80.6 °F26.6 °F14 %30.09 inSE (130°)9.2 mphClear
10:30 AM80.6 °F26.6 °F14 %30.09 inSE (130°)9.2 mphClear
10:30 AM81.0 °F27.0 °F7 %29.89 in9.0 miSE (130°)8.9 mph
10:55 AM86.0 °F26.6 °F12 %30.09 inSE (140°)9.2 mphClear
11:20 AM86.0 °F28.4 °F12 %30.06 inEast (80°)6.9 mphClear
11:30 AM86.0 °F28.4 °F12 %30.06 inEast (80°)6.9 mphClear
11:55 AM87.8 °F35.6 °F16 %30.06 inNNE (20°)13.8 mphClear
12:20 PM87.8 °F32.0 °F14 %30.06 inENE (70°)16.1 mphClear
12:30 PM87.8 °F32.0 °F14 %30.06 inENE (70°)16.1 mphClear
1:00 PM87.8 °F30.2 °F13 %30.06 inENE (60°)16.1 mphClear
1:20 PM87.8 °F26.6 °F11 %30.04 inENE (60°)18.4 mphClear
1:30 PM89.0 °F27.0 °F5 %29.84 in9.0 miENE (60°)17.9 mph
1:30 PM87.8 °F26.6 °F11 %30.04 inNorthClear
1:58 PM89.6 °F28.4 °F11 %30.04 inEast (80°)11.5 mphClear
2:20 PM89.6 °F23.0 °F9 %30.04 inENE (70°)9.2 mphClear
2:30 PM89.6 °F23.0 °F9 %30.04 inENE (70°)9.2 mphClear
3:00 PM89.6 °F21.2 °F8 %30.01 inNE (50°)20.7 mphClear
3:20 PM89.6 °F21.2 °F8 %30.01 inNE (50°)20.7 mphClear
3:30 PM89.6 °F21.2 °F8 %30.01 inNE (50°)20.7 mphClear
3:55 PM89.6 °F19.4 °F8 %30.04 inENE (60°)18.4 mphClear
4:00 PM89.6 °F19.4 °F8 %30.04 inENE (60°)18.4 mphClear
4:20 PM89.6 °F17.6 °F7 %30.01 inNE (50°)18.4 mphClear
4:30 PM89.0 °F17.0 °F4 %29.82 in9.0 miNE (50°)17.9 mph
4:30 PM89.6 °F17.6 °F7 %30.01 inNE (50°)18.4 mphClear
5:00 PM87.8 °F19.4 °F8 %30.01 inNE (50°)23.0 mphClear
5:20 PM86.0 °F17.6 °F8 %30.01 inENE (60°)23.0 mphClear
5:30 PM86.0 °F17.6 °F8 %30.01 inENE (60°)23.0 mphClear
5:54 PM84.2 °F17.6 °F8 %30.01 inNE (50°)23.0 mphClear
6:00 PM84.2 °F17.6 °F8 %30.01 inNE (50°)23.0 mphClear
6:20 PM84.2 °F15.8 °F8 %30.01 inENE (60°)16.1 mphClear
6:30 PM84.2 °F15.8 °F8 %30.01 inENE (60°)16.1 mphClear
6:58 PM82.4 °F17.6 °F9 %30.01 inENE (60°)13.8 mphClear
7:20 PM80.6 °F17.6 °F10 %30.04 inENE (70°)16.1 mphClear
7:30 PM81.0 °F17.0 °F4 %29.85 in9.0 miENE (70°)15.7 mph
7:30 PM80.6 °F17.6 °F10 %30.04 inENE (70°)16.1 mphClear
7:55 PM77.0 °F19.4 °F12 %30.04 inEast (80°)18.4 mphClear
8:20 PM77.0 °F19.4 °F12 %30.04 inEast (80°)13.8 mphClear
8:30 PM77.0 °F19.4 °F12 %30.04 inEast (80°)13.8 mphClear
9:00 PM77.0 °F19.4 °F12 %30.04 inEast (80°)13.8 mphClear
9:20 PM75.2 °F19.4 °F12 %30.06 inEast (90°)9.2 mphClear
9:30 PM75.2 °F19.4 °F12 %30.06 inEast (90°)9.2 mphClear
9:55 PM73.4 °F19.4 °F13 %30.06 inEast (90°)11.5 mphClear
10:00 PM73.4 °F19.4 °F13 %30.06 inEast (90°)11.5 mphClear
10:20 PM73.4 °F19.4 °F13 %30.06 inEast (100°)11.5 mphClear
10:30 PM74.0 °F20.0 °F6 %29.88 in9.0 miEast (100°)11.2 mph
10:30 PM73.4 °F19.4 °F13 %30.06 inEast (100°)11.5 mphClear
10:50 PM73.4 °F21.2 °F14 %30.06 inEast (90°)11.5 mphClear
11:00 PM73.4 °F21.2 °F14 %30.06 inEast (90°)11.5 mphClear
11:20 PM71.6 °F21.2 °F15 %30.06 inEast (100°)11.5 mphClear
11:30 PM71.6 °F21.2 °F15 %30.06 inEast (100°)11.5 mphClear
11:55 PM73.4 °F19.4 °F13 %30.04 inESE (110°)11.5 mphClear
Hourly data recorded from OIMM, located miles away from Mashhad, Iran







STORIES FROM OUR PARTNERS